Lid_Strength_Index
5 5 5 5 5 5 5 4 4 4 3 3 2 2 2 2 2 5 6 6 7 9 9 7 7 9 9 10 11 9 10 9 10 12 13 13 14 13 13 12 13 14 15 16 16 18 20 8 8 12 9 8 7 7
5 5 5 5 5 5 5 4 4 4 3 3 3 2 2 2 2 3 8 6 5 7 7 6 5 5 6 6 8 9 9 9 9 12 13 12 13 13 13 16 10 14 12 15 14 14 8 8 9 8 7 7 6 7
5 5 5 5 5 5 5 4 4 4 3 3 3 2 2 2 2 3 8 7 8 9 8 7 7 5 4 5 5 8 9 7 9 9 11 12 13 12 14 13 12 11 10 12 12 10 9 8 6 6 6 5 5 6
4 4 4 5 5 5 5 4 4 4 3 3 3 2 2 2 2 2 8 7 7 9 10 9 4 5 4 5 5 6 6 7 8 9 11 12 12 11 13 11 12 10 10 11 12 9 8 7 6 6 5 4 5 4
4 4 4 4 4 4 5 4 4 4 3 3 3 2 2 2 2 5 6 5 6 9 14 11 6 5 5 5 5 6 6 7 8 9 11 11 11 11 12 12 13 10 10 12 13 9 9 9 7 5 6 5 5 5
4 4 4 4 4 4 4 4 4 4 3 3 3 2 2 2 3 5 6 5 4 5 8 11 7 6 6 5 5 6 7 7 8 9 10 11 9 10 13 14 10 9 8 8 9 8 7 6 5 4 5 5 4 5
4 4 4 4 4 4 4 4 4 4 4 3 3 3 3 3 6 8 9 6 4 5 7 9 9 7 7 7 6 7 7 8 8 10 11 10 10 9 14 16 10 8 7 7 7 7 7 6 7 5 5 3 3 3
4 4 4 4 4 4 4 4 4 4 4 4 4 3 3 3 5 7 5 4 4 5 6 10 10 10 8 9 10 9 8 9 9 10 10 10 10 11 14 10 8 7 6 6 6 6 6 6 5 5 4 4 4 4
4 4 4 4 4 4 4 4 4 4 4 4 4 3 5 6 8 7 2 3 4 7 10 11 13 13 8 10 10 9 9 11 9 11 10 10 13 14 10 10 8 7 7 6 5 5 5 5 5 5 5 5 5 5
4 4 4 4 4 4 4 4 4 4 4 5 6 7 7 6 3 3 5 6 6 6 7 9 11 11 9 11 11 11 11 11 12 11 9 14 15 10 9 8 8 6 6 5 7 7 6 6 6 6 5 5 5 4
4 4 3 4 4 4 4 4 4 5 7 10 12 11 8 5 6 7 8 8 9 9 8 8 10 11 9 11 12 11 12 11 14 12 12 13 14 9 7 6 6 6 6 5 4 5 5 5 6 5 5 4 4 4
4 4 4 4 4 4 4 4 4 8 11 10 10 8 8 6 9 10 11 10 11 12 10 10 10 10 10 9 11 11 11 10 13 9 11 16 11 9 7 5 5 6 6 5 4 5 5 5 5 5 5 4 4 3
4 4 4 4 4 4 4 4 4 5 6 6 7 7 8 10 15 13 14 12 12 10 9 9 10 10 10 9 11 11 12 13 9 12 14 13 10 7 6 5 5 5 5 5 4 4 4 4 4 4 4 3 3 3
4 4 4 4 4 4 4 4 4 5 9 9 7 12 11 13 12 12 12 10 8 9 9 9 10 11 10 10 10 12 10 10 13 15 14 10 8 6 6 4 5 5 4 4 4 4 4 4 4 4 3 3 4 4
4 4 4 4 4 4 4 4 4 7 8 10 8 13 10 9 10 10 9 9 8 8 8 10 10 10 10 10 10 11 13 14 14 15 12 9 7 6 6 5 5 5 4 4 4 4 4 5 4 4 4 3 4 4
4 4 5 5 4 4 4 5 7 7 7 8 8 10 9 10 10 9 9 10 8 8 8 8 10 11 11 11 12 12 13 15 13 11 9 8 7 6 6 5 5 4 4 4 4 3 4 4 4 4 4 4 4 4
4 7 4 4 4 5 5 7 7 6 6 7 8 7 9 9 9 8 9 9 8 9 10 10 11 11 11 13 13 12 14 11 10 9 9 8 7 7 6 6 5 4 4 3 3 3 4 4 4 4 4 4 4 4
7 5 4 4 5 6 8 7 7 7 9 8 9 9 9 8 9 9 8 8 8 9 9 10 9 11 12 13 14 11 9 8 8 9 8 7 7 6 6 6 5 4 4 3 3 4 4 4 4 4 4 4 4 4
5 5 4 5 6 8 9 8 7 9 9 8 9 9 9 9 9 8 8 8 7 7 8 9 9 11 11 9 9 8 7 9 8 7 7 7 6 6 5 5 4 4 4 3 3 4 4 4 4 4 4 4 4 4
5 5 5 5 5 8 9 9 8 9 10 9 9 10 10 9 8 8 8 7 7 8 9 9 9 8 8 6 6 6 6 7 8 8 7 6 6 6 6 5 5 5 4 4 4 5 4 4 4 4 5 5 5 5
6 6 5 6 8 8 9 10 10 11 10 10 9 10 10 10 9 9 9 6 7 8 8 7 6 6 5 5 5 5 6 7 8 7 7 7 5 6 6 5 5 5 5 5 5 4 5 4 3 4 5 5 4 4
7 5 7 6 8 7 9 8 10 9 10 10 10 10 11 10 9 9 8 8 8 7 7 6 6 5 5 5 5 5 5 6 7 7 8 7 6 6 6 5 5 6 5 5 5 5 4 3 3 4 4 4 4 4
6 7 8 7 8 10 10 8 10 10 11 10 10 10 10 10 9 7 8 7 7 5 5 5 4 4 5 4 4 4 4 5 6 6 5 6 6 6 5 5 5 5 5 5 4 3 3 6 4 4 3 3 4 5
6 7 9 9 9 11 8 10 10 10 11 11 11 11 10 9 8 8 9 7 5 5 5 5 5 6 5 4 5 4 4 4 4 4 4 4 5 5 5 5 4 4 4 4 4 4 4 4 5 4 4 4 5 5
11 11 12 15 10 10 10 10 10 11 11 10 10 10 9 8 10 9 10 7 7 6 5 5 5 5 6 5 4 4 3 3 4 5 4 4 4 4 4 4 4 3 3 3 4 4 4 3 3 4 4 5 5 6
12 11 13 10 10 11 12 13 12 11 10 10 9 8 7 9 10 11 8 7 6 5 5 5 6 6 6 5 5 5 5 4 4 4 4 3 3 4 4 4 5 4 3 3 3 3 3 4 4 4 5 6 8 5
12 12 10 9 10 10 11 10 10 10 10 10 9 9 9 11 11 8 5 5 5 4 3 5 5 5 5 5 5 5 4 4 5 4 4 3 1 1 2 3 4 2 3 3 4 3 3 3 4 4 5 5 5 5
9 10 12 10 10 10 11 10 10 10 9 8 7 10 10 10 10 6 6 4 3 3 5 5 6 6 6 5 5 5 5 4 4 3 3 2 2 2 4 3 2 8 4 6 5 5 2 2 3 3 4 5 5 5
10 10 10 11 11 11 10 10 10 9 6 7 8 9 8 6 5 6 4 4 4 6 6 6 6 6 6 4 4 4 4 5 6 7 7 7 6 5 4 3 4 4 4 6 9 8 6 5 5 5 5 6 6 6
10 10 11 11 11 11 10 8 9 7 7 6 6 6 7 7 6 4 4 5 6 8 7 6 6 6 5 6 7 6 5 5 6 7 8 9 7 5 5 4 5 5 4 5 5 5 8 6 7 6 7 8 8 8
10 10 11 11 11 9 8 7 7 7 7 8 7 7 7 8 7 4 5 5 7 8 8 8 7 6 7 7 7 8 8 7 7 7 7 6 5 5 5 5 5 5 5 6 6 7 8 8 8 9 10 10 10 10
11 11 11 11 10 9 8 8 9 9 9 9 8 7 7 7 8 6 5 7 8 8 10 9 8 8 7 7 7 7 8 7 8 8 8 7 6 5 5 5 5 5 6 7 7 8 8 10 10 10 11 11 11 11
10 10 10 10 10 10 9 9 9 9 9 9 9 8 7 7 8 7 5 7 8 8 9 8 8 8 8 7 7 8 9 8 10 11 11 11 11 10 7 7 8 8 9 9 9 10 10 10 11 11 11 11 11 11